Orbital Elements at Epoch 2459200.5 (2020-Dec-17.0) TDB
Reference: JPL 31 (heliocentric ecliptic J2000)
Element | Value | Uncertainty (1-sigma) | Units |
e | .1824073202642001 | 3.0863e-08 | |
a | 2.344942151847321 | 7.0616e-09 | au |
q | 1.917207537754284 | 7.2767e-08 | au |
i | 6.107781429278051 | 3.7857e-06 | deg |
node | 157.1958697234081 | 2.9355e-05 | deg |
peri | 127.0449561930515 | 3.1154e-05 | deg |
M | 151.4562753847149 | 9.0686e-06 | deg |
tp | 2458648.700377935061 (2019-Jun-14.20037794) | 3.3279e-05 | TDB |
period | 1311.585561171311 3.59 | 5.9246e-06 1.622e-08 | d yr |
n | .2744769465733536 | 1.2398e-09 | deg/d |
Q | 2.772676765940357 | 8.3497e-09 | au |
|
| | Orbit Determination Parameters
Additional Information
|